Change the Weather History Date:

Thursday, October 3, 2013

  Actual Average (EGUB) Record (EGUB)
Temperature  
Mean Temperature 60 °F -  
Max Temperature 65 °F 59 °F 78 °F (2011)
Min Temperature 54 °F 45 °F 35 °F (2008)
Degree Days  
Heating Degree Days 6    
Growing Degree Days 10 (Base 50)    
Moisture  
Dew Point 60 °F    
Average Humidity 96    
Maximum Humidity 100    
Minimum Humidity 84    
Precipitation  
Precipitation 0.02 in - - ()
Sea Level Pressure  
Sea Level Pressure 29.76 in    
Wind  
Wind Speed 9 mph ()    
Max Wind Speed 18 mph    
Max Gust Speed -    
Visibility 3.8 miles    
Events Fog , Rain    
Averages and records for this station are not official NWS values.
T = Trace of Precipitation, MM = Missing Value Source: Averaged Metar Reports

Daily Weather History Graph

Daily Weather History Graph

Search for Another Location

Airport or City:

Trip Planner

Search our weather history database for the weather conditions in past years. The results will help you decide how hot, cold, wet, or windy it might be!

Date:

Astronomy

Oct. 03, 2013 Rise Set
Actual Time 7:07 AM BST 6:36 PM BST
Civil Twilight 6:34 AM BST 7:09 PM BST
Nautical Twilight 5:56 AM BST 7:48 PM BST
Astronomical Twilight 5:16 AM BST 8:27 PM BST
Moon 5:18 AM BST (10/3) 5:41 PM BST (10/3)
Length of Visible Light 12h 35m
Length of Day
11h 29m
Waning Crescent, 3% of the Moon is Illuminated
Oct 3
Waning Crescent
Oct 5
New
Oct 12
First Quarter
Oct 19
Full
Oct 27
Last Quarter

Hourly Weather History & Observations

Time (BST) Temp. Dew Point Humidity Pressure Visibility Wind Dir Wind Speed Gust Speed Precip Events Conditions
12:50 AM 58 °F 57 °F 95% 29.87 in 3 mi SE 6.9 mph - -   Mist
12:50 AM 57.2 °F 57.2 °F 100% 29.86 in 3.1 mi SE 6.9 mph - N/A   Clear
1:50 AM 55.4 °F 55.4 °F 100% 29.86 in 1.9 mi ESE 4.6 mph - N/A   Clear
2:34 AM 57.2 °F 55.4 °F 94% 29.86 in 0.1 mi East 6.9 mph - N/A Fog Fog
2:50 AM 57.2 °F 57.2 °F 100% 29.86 in 0.0 mi East 5.8 mph - N/A Fog Fog
3:50 AM 59.0 °F 59.0 °F 100% 29.83 in 0.7 mi ESE 6.9 mph - N/A   Overcast
4:50 AM 59.0 °F 59.0 °F 100% 29.83 in 0.3 mi ESE 9.2 mph - N/A Fog Fog
5:50 AM 59.0 °F 59.0 °F 100% 29.83 in 0.4 mi East 9.2 mph - N/A Fog Fog
6:50 AM 59 °F 59 °F 100% 29.81 in 0 mi East 12.7 mph - - Fog Heavy Fog
6:50 AM 59.0 °F 59.0 °F 100% 29.80 in 0.2 mi East 12.7 mph - N/A Fog Fog
7:50 AM 59.0 °F 59.0 °F 100% 29.77 in 1.0 mi East 9.2 mph - N/A   Overcast
8:09 AM 59.0 °F 59.0 °F 100% 29.77 in - East 9.2 mph - N/A   Overcast
8:50 AM 59.0 °F 59.0 °F 100% 29.77 in 2.2 mi ESE 12.7 mph - N/A   Overcast
9:28 AM 59.0 °F 59.0 °F 100% 29.77 in 2.8 mi East 11.5 mph - N/A   Overcast
9:50 AM 59 °F 58 °F 97% 29.76 in 4 mi East 12.7 mph - -   Mist
9:50 AM 59.0 °F 59.0 °F 100% 29.74 in 3.7 mi East 12.7 mph - N/A   Overcast
10:50 AM 60.8 °F 59.0 °F 94% 29.74 in 3.7 mi ESE 15.0 mph - N/A   Mostly Cloudy
11:50 AM 60.8 °F 59.0 °F 94% 29.74 in 6.2 mi ESE 15.0 mph - N/A Rain Light Rain
12:50 PM 61 °F 59 °F 92% 29.69 in 4 mi SE 17.3 mph - - Rain Light Rain
12:50 PM 60.8 °F 59.0 °F 94% 29.68 in 4.3 mi SE 17.3 mph - N/A   Mostly Cloudy
1:50 PM 62.6 °F 60.8 °F 94% 29.68 in 6.2 mi SE 18.4 mph - N/A   Mostly Cloudy
2:50 PM 64.4 °F 60.8 °F 88% 29.68 in 6.2 mi SE 15.0 mph - N/A   Mostly Cloudy
3:50 PM 65 °F 61 °F 84% 29.71 in 12 mi SSE 18.4 mph - -   Partly Cloudy
3:56 PM 64.4 °F 60.8 °F 88% 29.71 in 6.2 mi SSE 18.4 mph - N/A   Mostly Cloudy
4:50 PM 64.4 °F 60.8 °F 88% 29.71 in 6.2 mi SSE 15.0 mph - N/A   Mostly Cloudy
5:50 PM 64.4 °F 62.6 °F 94% 29.71 in 6.2 mi SSE 12.7 mph - N/A   Scattered Clouds
6:50 PM 64.4 °F 62.6 °F 94% 29.71 in 6.2 mi SE 10.4 mph - N/A   Mostly Cloudy
7:50 PM 64.4 °F 62.6 °F 94% 29.71 in 6.2 mi SE 11.5 mph - N/A   Mostly Cloudy
8:50 PM 62.6 °F 62.6 °F 100% 29.74 in 6.2 mi SE 10.4 mph - N/A   Mostly Cloudy
9:06 PM 62.6 °F 62.6 °F 100% 29.74 in 4.3 mi SE 10.4 mph - N/A   Mostly Cloudy
9:50 PM 63 °F 62 °F 96% 29.74 in 4 mi SSE 5.8 mph - -   Mist
9:50 PM 62.6 °F 62.6 °F 100% 29.74 in 4.3 mi SSE 5.8 mph - N/A   Mostly Cloudy
10:50 PM 64.4 °F 62.6 °F 94% 29.71 in 3.1 mi SE 10.4 mph - N/A   Overcast
11:50 PM 62.6 °F 62.6 °F 100% 29.71 in 6.2 mi SSE 11.5 mph - N/A   Scattered Clouds